Tracking 30102 objects as of 13-Dec-2024
HD Live streaming from Space Station
objects crossing your sky now

STARLINK-6131

Track STARLINK-6131 now!
10-day predictions
STARLINK-6131 is classified as:


NORAD ID: 57107
Int'l Code: 2023-090G
Perigee: 565.4 km
Apogee: 567.1 km
Inclination: 43.0 °
Period: 95.8 minutes
Semi major axis: 6937 km
RCS: Unknown
Launch date: June 23, 2023
Source: United States (US)
Launch site: AIR FORCE EASTERN TEST RANGE (AFETR)
Your satellite tracking list
Your tracking list is empty




NASA's NSSDC Master Catalog

Two Line Element Set (TLE):
1 57107U 23090G   24346.98124312  .00000421  00000-0  46203-4 0  9999
2 57107  43.0028 214.5983 0001227 264.4512  95.6190 15.02535244 82312
Source of the keplerian elements: AFSPC